www.pogodaiklimat.ru
ПОГОДА в Северодвинске

Архив погоды в Северодвинске (Архангельская область, Россия)

Время
(UTC), дата
00 29.11
03 29.11
06 29.11
09 29.11
12 29.11
15 29.11
18 29.11
21 29.11
00 30.11
03 30.11
06 30.11
09 30.11
12 30.11
15 30.11
18 30.11
21 30.11
00 1.12
03 1.12
06 1.12
09 1.12
12 1.12
15 1.12
18 1.12
21 1.12
00 2.12
03 2.12
06 2.12
09 2.12
12 2.12
15 2.12
18 2.12
21 2.12
00 3.12
03 3.12
06 3.12
09 3.12
12 3.12
15 3.12
18 3.12
21 3.12
00 4.12
03 4.12
06 4.12
09 4.12
12 4.12
15 4.12
18 4.12
21 4.12
00 5.12
03 5.12
06 5.12
09 5.12
12 5.12
15 5.12
18 5.12
Ветер
(напр.,м/с)
Видим. Явления Облачность Т
(С)
Тd
(С)
f
(%)
Тe
(С)
Тes
(С)
Комфортность P
(гПа)
Po
(гПа)
Тmin
(С)
Tmax
(С)
R
(мм)
R24
(мм)
S
(см)
С 1 10 км слаб. снег 8/8 1000 м
[Sc]
-11.0 -12.3 90 -13 -13 прохладно 1010.2 1009.2
С 2 20 км {снег} ясно -9.9 -11.5 88 -14 -14 холодно 1012.2 1011.2 -13.7 0.2 9
З 2 20 км {снег} 1/0 -14.8 -16.2 89 -20 -20 очень
холодно
1014.2 1013.1 -15.1
ЮЗ 2 10 км слаб. ливневой снег 8/8 540 м
[Cb cap]
-8.1 -9.3 91 -13 -13 прохладно 1015.7 1014.6
ЮЗ 1 20 км {ливн. снег} 1/0 -10.3 -11.3 92 -13 -13 прохладно 1015.9 1014.9
штиль 0 50 км ?/? -12.4 -14.7 100 -12 -12 прохладно 1016.0 1015.0 -8.0 0.0
ЮВ 1 200 м переохл. туман ?/? -14.6 -16.0 89 -17 -17 очень
холодно
1015.3 1014.2
В 1 20 км {снег, туман} 4/4 100 м
[St]
-16.9 -18.6 87 -20 -20 очень
холодно
1014.0 1012.9
В 2 10 км {снег, туман} 5/5 120 м
[St]
-15.4 -16.9 88 -20 -20 холодно 1010.7 1009.7
В 4 10 км слаб. снег 10/8 120 м
[Frnb As trans]
-13.4 -14.7 90 -21 -21 очень
холодно
1006.9 1005.8 -17.0 0.0 9
В 5
{10}
20 км в посл. час снег 10/6 300 м
[Sc As op]
-12.4 -13.7 90 -20 -20 холодно 1002.2 1001.2
В 7-13
{13}
20 км позёмок {метель} 10/0
[Ac As]
-11.3 -14.6 77 -21 -21 очень
холодно
996.3 995.2
В 6-12
{14}
20 км позёмок {метель} 10/0
[Ac As]
-10.5 -14.3 74 -19 -19 холодно 990.1 989.1
В 7-13
{14}
4000 м слаб. снег {метель} 10/0
[As op]
-10.4 -12.5 85 -20 -20 холодно 984.5 983.5 -9.8 0.4
В 8-15
{15}
4000 м слаб. снег {метель} 10/0
[As op]
-9.3 -11.8 82 -19 -19 холодно 980.8 979.7
В 5-10
{15}
4000 м слаб. снег {метель} 10/6 200 м
[Frnb As op]
-8.3 -9.7 90 -16 -16 прохладно 978.3 977.3
В 5-10
{10}
10 км слаб. снег {метель} 10/8 200 м
[Frnb As op]
-7.6 -10.1 82 -15 -15 прохладно 977.8 976.8
В 5
{10}
20 км {снег, метель} 10/5 300 м
[St Ac As]
-8.3 -11.0 81 -16 -16 прохладно 979.0 978.0 -10.4 2 9
В 4 4000 м слаб. снег {метель} 10/8 200 м
[Frnb As op]
-8.8 -10.5 87 -16 -16 прохладно 979.7 978.7
СВ 3 10 км слаб. снег {ливн. снег} 10/3 300 м
[Frnb As op]
-8.5 -11.0 82 -14 -14 по сезону 981.1 980.1
СВ 3 20 км {ливн. снег, снег} 10/0
[As op]
-8.1 -11.0 80 -14 -14 по сезону 981.5 980.5
СВ 3 20 км 10/0
[As op]
-8.4 -11.4 79 -14 -14 по сезону 982.2 981.2 -8.1 0.8
СВ 2 20 км 10/4 1000 м
[Sc Ac As]
-8.9 -11.8 79 -13 -13 по сезону 982.4 981.3
СВ 2 10 км слаб. снег 10/1 200 м
[Frnb As op]
-9.2 -11.7 82 -14 -14 по сезону 982.7 981.7
В 1 4000 м слаб. снег 10/8 600 м
[Sc As op]
-9.3 -11.0 87 -12 -12 по сезону 983.3 982.3
С 1 10 км слаб. снег 10/8 750 м
[Sc As op]
-8.4 -10.2 87 -11 -11 по сезону 984.3 983.3 -9.3 0.5 8
СВ 2 20 км {снег} 10/10 420 м
[Sc]
-7.3 -9.4 85 -12 -12 по сезону 985.3 984.3
С 2 10 км слаб. снег 10/8 300 м
[Sc As trans]
-7.5 -9.6 85 -12 -12 по сезону 987.7 986.7
С 1 20 км {снег} 10/10 360 м
[Sc]
-7.3 -9.5 84 -10 -10 по сезону 989.2 988.1
СВ 3 20 км 10/10 700 м
[Sc]
-7.5 -9.9 83 -13 -13 по сезону 991.1 990.1 -6.7 0.0
СВ 3 20 км в посл. час снег 10/10 420 м
[Sc]
-6.9 -9.0 85 -13 -13 по сезону 992.9 991.9
С 3 10 км слаб. снег 10/8 500 м
[Sc As op]
-6.4 -8.7 84 -12 -12 по сезону 995.0 994.0
СВ 4 20 км {снег} 10/10 600 м
[Sc]
-6.6 -9.7 79 -13 -13 по сезону 996.8 995.8
СВ 3 10 км слаб. снег 10/8 600 м
[Sc As op]
-7.0 -10.0 79 -13 -13 по сезону 999.5 998.5 -7.5 0.2 8
СВ 3 20 км {снег} 1/0 -10.1 -12.9 80 -16 -16 прохладно 1002.7 1001.6 -10.1
СВ 3 20 км ясно -11.0 -14.2 77 -17 -17 прохладно 1005.6 1004.6
В 1 20 км ясно -11.7 -14.6 79 -14 -14 по сезону 1007.5 1006.5
СВ 1 20 км 1/0 -16.3 -17.5 90 -19 -19 холодно 1010.2 1009.1 -7.0 0.0
В 3 20 км 6/6 1000 м
[Sc]
-12.7 -15.0 83 -19 -19 холодно 1011.8 1010.7
В 3 20 км 5/5 1000 м
[Sc]
-14.0 -16.0 85 -20 -20 очень
холодно
1013.4 1012.3
В 4 20 км ясно -14.8 -17.6 79 -23 -23 очень
холодно
1013.9 1012.8
В 3 20 км 1/0 -15.3 -19.2 72 -22 -22 очень
холодно
1014.8 1013.7 -16.3 8
СВ 3 20 км 1/0
[Ci fib]
-16.5 -19.8 76 -23 -23 очень
холодно
1015.4 1014.3 -16.5
СВ 4 20 км 3/0
[Ci fib]
-15.9 -18.2 82 -24 -24 очень
холодно
1016.2 1015.1
СВ 3 20 км 1/0
[Ci fib]
-15.6 -18.1 81 -22 -22 очень
холодно
1017.2 1016.1
СВ 4 20 км ясно -15.8 -18.9 77 -24 -24 очень
холодно
1018.1 1017.0 -15.3
СВ 4 20 км ясно -15.6 -19.3 73 -24 -24 очень
холодно
1019.5 1018.4
СВ 4 20 км ясно -16.1 -20.3 70 -24 -24 очень
холодно
1020.9 1019.6
СВ 3 20 км ясно -15.6 -20.9 64 -22 -22 очень
холодно
1022.2 1021.1
С 2 20 км 10/10 800 м
[Sc]
-12.1 -16.6 69 -17 -17 прохладно 1022.4 1021.3 -16.2 8
С 3 20 км 9/4 1000 м
[Sc Ac As]
-5.9 -7.4 89 -12 -12 по сезону 1022.5 1021.5
С 3 20 км 3/0
[Ac As]
-5.3 -7.2 86 -11 -11 по сезону 1024.5 1023.5
С 4 20 км 6/4 1000 м
[Sc Ac trans]
-5.1 -9.5 71 -11 -11 по сезону 1025.5 1024.4
С 4 20 км 10/6 600 м
[Sc Ac lent]
-4.3 -9.9 65 -10 -10 по сезону 1026.8 1025.8 -4.0
СВ 3 20 км 9/9 600 м
[Sc]
-4.7 -11.0 61 -10 -10 по сезону 1028.2 1027.1
Местоположение метеостанции Северодвинск (Архангельская область, Россия): широта 64.58 долгота 39.78 высота над уровнем моря 8 м.
В архиве по умолчанию представлена погода в Северодвинске за последнюю неделю. Архивные данные за месяц целиком и за предыдущие месяцы, начиная с января 2011 года, Вы можете получить, выбрав интересующий диапазон дат из раскрывающегося списка и нажав кнопку "Найти!".
*Определитесь, кто Вы:
Внимание! Время в таблицах - всемирное. Для получения местного времени необходимо прибавить поправку, которая равна 3 ч.
Смотрите также архив погоды в соседних городах и на ближайших метеорологических станциях:
Партнеры нашего сайта:      
Пояснения к столбцам:
  • Ветер - указаны скорость ветра в м/с - средняя за 10 мин, порывы в срок и между сроками (в фигурных скобках) и направление, откуда дует ветер: С - северный,
  • СВ - северо-восточный, В - восточный, ЮВ - юго-восточный, Ю - южный, ЮЗ - юго-западный, З - западный, СЗ - северо-западный.
  • Видимость - горизонтальная дальность видимости в метрах или километрах. При видимости от 1 до 10 км при отсутствии осадков обычно наблюдается дымка, при ухудшении видимости до 1 км и менее - туман. В сухую погоду видимость может ухудшаться дымом, пылью или мглою.
  • Явления - указаны атмосферные явления, наблюдавшиеся в срок или в последний час перед сроком; фигурными скобками обозначены явления, наблюдавшиеся между сроками (за 1-3 часа до срока); квадратными скобками обозначены град или гололедные отложения с указанием их диаметра в мм.
  • Облачность - указаны через наклонную черту общая и нижняя облачность в баллах и высота нижней границы облаков в метрах; квадратными скобками обозначены формы облаков: Ci - перистые, Cs - перисто-слоистые, Cc - перисто-кучевые, Ac - высококучевые, As - высокослоистые, Sc - слоисто-кучевые, Ns - слоисто-дождевые, Cu - кучевые, Cb - кучево-дождевые. Подробнее классификацию облаков см. в Атласе облаков (PDF).
  • T - Температура воздуха - температура, измеренная на высоте 2 м над землей.
  • Td - Температура точки росы - температура, при понижении до которой содержащийся в воздухе водяной пар достигнет насыщения.
  • f - Относительная влажность воздуха - влажноcть воздуха, измеренная на высоте 2 м над землей.
  • Te - Эффективная температура - температура, которую ощущает одетый по сезону человек в тени. Характеристика душности погоды. При расчете учитывается влияние влажности воздуха и скорости ветра на теплоощущения человека.
  • Tes - Эффективная температура на солнце - температура, которую ощущает человек, с поправкой на солнечный нагрев. Характеристика знойности погоды. Зависит от высоты солнца над горизонтом, облачности и скорости ветра. Ночью, в пасмурную погоду, а также при ветре 12 м/с и более поправка равна нулю.
  • P - Атмосферное давление - приведенное к уровню моря атмосферное давление.
  • Po - Атмосферное давление - измеренное на уровне метеостанции атмосферное давление.
  • Tmin - Минимальная температура - минимум температуры воздуха на высоте 2 м над землей.
  • Tmax - Максимальная температура - максимум температуры воздуха на высоте 2 м над землей.
  • R - Количество осадков - Количество выпавших осадков за период времени, мм. При наведении курсора мыши на число - период времени, за который выпало указанное количество осадков.
  • R24 - Количество осадков - Количество выпавших осадков за 24 часа, мм.
  • S - Снежный покров - Высота снежного покрова, см. При наведении курсора мыши на число - состояние снежного покрова и степень покрытия местности в баллах.